DLH6CH EDDF-EGLL

Flight info

Callsign DLH6CH
Flight time N/A
Altitude 36000
Route OBOKA Z29 TORNU DCT ABNED L980 LOGAN
Aircraft A321/M-SDE3FGHIRWY/LB1

Departure

Time 2026-05-04 06:52
Airport Frankfurt Main Airport (EDDF)

Arrival

Time N/A
Airport London Heathrow Airport (EGLL)
Time Latitude Longitude Altitude Speed Heading
2026-05-04 06:14 50.03718 8.54219 344 ft 0 kts 159°
2026-05-04 06:44 50.03706 8.54522 345 ft 7 kts 69°
2026-05-04 06:44 50.03725 8.54598 353 ft 9 kts 69°
2026-05-04 06:44 50.03740 8.54662 350 ft 0 kts 69°
2026-05-04 06:48 50.03979 8.55656 351 ft 20 kts 70°
2026-05-04 06:48 50.04028 8.55860 357 ft 20 kts 70°
2026-05-04 06:49 50.04076 8.56064 355 ft 20 kts 70°
2026-05-04 06:50 50.04394 8.57408 363 ft 19 kts 70°
2026-05-04 06:51 50.04422 8.57597 364 ft 16 kts 109°
2026-05-04 06:51 50.04333 8.57687 364 ft 17 kts 161°
2026-05-04 06:51 50.04251 8.57596 366 ft 16 kts 249°
2026-05-04 06:51 50.04193 8.57357 367 ft 48 kts 249°
2026-05-04 06:52 50.03992 8.56518 360 ft 116 kts 249°
2026-05-04 06:52 50.03645 8.55082 363 ft 167 kts 249°
2026-05-04 06:52 50.03228 8.53378 992 ft 168 kts 248°
2026-05-04 06:52 50.02805 8.51679 1733 ft 170 kts 248°
2026-05-04 06:53 50.02196 8.50007 2146 ft 185 kts 225°
2026-05-04 06:53 50.01039 8.49052 2531 ft 199 kts 196°
2026-05-04 06:53 49.99686 8.48515 3104 ft 201 kts 195°
2026-05-04 06:53 49.98308 8.47963 3680 ft 202 kts 196°
2026-05-04 06:54 49.96938 8.47411 4252 ft 204 kts 196°
2026-05-04 06:54 49.95572 8.46850 4814 ft 208 kts 197°
2026-05-04 06:54 49.94094 8.46184 5041 ft 229 kts 198°
2026-05-04 06:54 49.92532 8.45384 5468 ft 240 kts 207°
2026-05-04 06:55 49.91195 8.43929 6178 ft 241 kts 227°
2026-05-04 06:55 49.90230 8.41796 6926 ft 242 kts 239°
2026-05-04 06:55 49.89369 8.39547 7644 ft 243 kts 241°
2026-05-04 06:55 49.88747 8.37093 8351 ft 246 kts 257°
2026-05-04 06:56 49.88620 8.34365 8738 ft 264 kts 273°
2026-05-04 06:57 49.94927 8.14871 11579 ft 352 kts 316°
2026-05-04 06:58 49.96810 8.12386 12085 ft 358 kts 317°
2026-05-04 06:58 49.98718 8.09861 12650 ft 361 kts 317°
2026-05-04 06:58 50.00633 8.07302 13207 ft 365 kts 316°
2026-05-04 06:58 50.02565 8.04714 13772 ft 369 kts 316°
2026-05-04 06:59 50.04521 8.02089 14273 ft 373 kts 316°
2026-05-04 06:59 50.06501 7.99433 14762 ft 376 kts 316°
2026-05-04 06:59 50.08489 7.96766 15230 ft 379 kts 316°
2026-05-04 06:59 50.10496 7.94070 15729 ft 382 kts 316°
2026-05-04 07:01 50.24983 7.74643 18976 ft 405 kts 321°
2026-05-04 07:01 50.27441 7.72440 19391 ft 412 kts 332°
2026-05-04 07:02 50.30079 7.70649 19803 ft 415 kts 333°
2026-05-04 07:02 50.32736 7.68848 20211 ft 417 kts 333°
2026-05-04 07:02 50.35402 7.67031 20609 ft 419 kts 333°
2026-05-04 07:02 50.38084 7.65199 21009 ft 422 kts 333°
2026-05-04 07:03 50.40783 7.63348 21408 ft 424 kts 332°
2026-05-04 07:03 50.43488 7.61481 21804 ft 427 kts 332°
2026-05-04 07:03 50.46216 7.59598 22185 ft 429 kts 332°
2026-05-04 07:03 50.48953 7.57707 22562 ft 432 kts 332°
2026-05-04 07:04 50.51721 7.55793 22937 ft 434 kts 332°
2026-05-04 07:04 50.54493 7.53875 23313 ft 437 kts 331°
2026-05-04 07:04 50.57155 7.51612 23655 ft 434 kts 322°
2026-05-04 07:04 50.58406 7.50332 23792 ft 435 kts 322°
2026-05-04 07:05 50.60944 7.47718 24126 ft 437 kts 322°
2026-05-04 07:05 50.63495 7.45098 24475 ft 438 kts 322°
2026-05-04 07:05 50.66056 7.42467 24820 ft 439 kts 322°
2026-05-04 07:05 50.68620 7.39834 25154 ft 441 kts 322°
2026-05-04 07:06 50.73471 7.34001 25799 ft 435 kts 309°
2026-05-04 07:06 50.75400 7.30357 26136 ft 431 kts 300°
2026-05-04 07:06 50.76932 7.26322 26465 ft 427 kts 292°
2026-05-04 07:07 50.78283 7.22127 26779 ft 429 kts 292°
2026-05-04 07:08 50.87912 6.92454 28896 ft 437 kts 292°
2026-05-04 07:09 50.88828 6.89604 29082 ft 438 kts 292°
2026-05-04 07:09 50.89553 6.87296 29268 ft 435 kts 291°
2026-05-04 07:10 50.90525 6.84088 29420 ft 438 kts 292°
2026-05-04 07:10 50.91887 6.79776 29741 ft 438 kts 292°
2026-05-04 07:12 51.01505 6.49899 31688 ft 433 kts 291°
2026-05-04 07:12 51.02856 6.45621 31948 ft 432 kts 291°
2026-05-04 07:12 51.04203 6.41352 32186 ft 432 kts 291°
2026-05-04 07:12 51.05549 6.37080 32450 ft 432 kts 291°
2026-05-04 07:13 51.06891 6.32814 32700 ft 431 kts 291°
2026-05-04 07:13 51.08229 6.28549 32951 ft 431 kts 291°
2026-05-04 07:13 51.09565 6.24286 33198 ft 430 kts 291°
2026-05-04 07:14 51.14501 6.07058 34173 ft 421 kts 280°
2026-05-04 07:14 51.15229 6.02560 34375 ft 421 kts 279°
2026-05-04 07:15 51.15949 5.98097 34590 ft 421 kts 279°
2026-05-04 07:15 51.16685 5.93523 34780 ft 421 kts 279°
2026-05-04 07:15 51.17403 5.89061 34953 ft 421 kts 279°
2026-05-04 07:15 51.18139 5.84557 35126 ft 422 kts 282°
2026-05-04 07:16 51.19166 5.80137 35290 ft 426 kts 288°
2026-05-04 07:16 51.20323 5.75785 35447 ft 427 kts 288°
2026-05-04 07:16 51.21479 5.71421 35616 ft 427 kts 287°
2026-05-04 07:16 51.22633 5.67057 35766 ft 427 kts 287°
2026-05-04 07:17 51.23785 5.62684 35943 ft 428 kts 287°
2026-05-04 07:17 51.24930 5.58327 35980 ft 428 kts 287°
2026-05-04 07:17 51.27224 5.49568 35978 ft 429 kts 287°
2026-05-04 07:18 51.29519 5.40777 35979 ft 428 kts 287°
2026-05-04 07:18 51.31806 5.31985 35977 ft 428 kts 287°
2026-05-04 07:19 51.34083 5.23183 35979 ft 429 kts 287°
2026-05-04 07:19 51.36354 5.14356 35989 ft 429 kts 287°
2026-05-04 07:20 51.38605 5.05578 35995 ft 429 kts 287°
2026-05-04 07:20 51.40874 4.96730 36000 ft 430 kts 287°
2026-05-04 07:22 51.49878 4.61205 36002 ft 430 kts 287°
2026-05-04 07:23 51.52109 4.52307 35998 ft 430 kts 287°
2026-05-04 07:23 51.54331 4.43397 35997 ft 430 kts 287°
2026-05-04 07:24 51.56549 4.34480 36003 ft 430 kts 287°
2026-05-04 07:24 51.58762 4.25560 36000 ft 430 kts 287°
2026-05-04 07:26 51.67520 3.89917 35998 ft 430 kts 287°
2026-05-04 07:27 51.69713 3.80883 35993 ft 430 kts 287°
2026-05-04 07:27 51.71875 3.71941 35996 ft 431 kts 287°
2026-05-04 07:28 51.74040 3.62952 36003 ft 431 kts 287°
2026-05-04 07:28 51.76205 3.53925 36003 ft 431 kts 287°
2026-05-04 07:29 51.78358 3.44899 36005 ft 430 kts 287°
2026-05-04 07:29 51.80501 3.35874 36003 ft 430 kts 287°
2026-05-04 07:30 51.82275 3.28362 36005 ft 430 kts 287°
2026-05-04 07:30 51.84186 3.19227 36005 ft 426 kts 277°
2026-05-04 07:31 51.84439 3.09792 36003 ft 418 kts 261°
2026-05-04 07:33 51.81955 2.72213 35964 ft 422 kts 261°
2026-05-04 07:33 51.81629 2.67505 35712 ft 421 kts 261°
2026-05-04 07:33 51.81304 2.62811 35466 ft 420 kts 261°
2026-05-04 07:34 51.80981 2.58122 35222 ft 419 kts 261°
2026-05-04 07:34 51.80659 2.53452 34982 ft 418 kts 261°
2026-05-04 07:34 51.80336 2.48778 34743 ft 418 kts 261°
2026-05-04 07:34 51.80012 2.44120 34509 ft 417 kts 261°
2026-05-04 07:35 51.79684 2.39470 34275 ft 416 kts 261°
2026-05-04 07:35 51.79355 2.34833 33908 ft 416 kts 261°
2026-05-04 07:35 51.79018 2.30162 33025 ft 418 kts 260°
2026-05-04 07:35 51.78683 2.25504 32253 ft 418 kts 259°
2026-05-04 07:36 51.78350 2.20870 31579 ft 415 kts 259°
2026-05-04 07:36 51.78056 2.16290 31129 ft 409 kts 259°
2026-05-04 07:38 51.76297 1.85770 27684 ft 369 kts 259°
2026-05-04 07:38 51.76043 1.81672 27233 ft 364 kts 259°
2026-05-04 07:38 51.75792 1.77639 26785 ft 359 kts 260°
2026-05-04 07:38 51.75545 1.73648 26348 ft 355 kts 260°
2026-05-04 07:39 51.75298 1.69704 25913 ft 352 kts 261°
2026-05-04 07:39 51.75048 1.65791 25497 ft 350 kts 261°
2026-05-04 07:39 51.74798 1.61887 25073 ft 349 kts 261°
2026-05-04 07:39 51.74547 1.57965 24582 ft 360 kts 262°
2026-05-04 07:40 51.74284 1.53880 24020 ft 369 kts 262°
2026-05-04 07:40 51.74020 1.49760 23442 ft 369 kts 263°
2026-05-04 07:40 51.73759 1.45648 22850 ft 368 kts 263°
2026-05-04 07:40 51.73499 1.41544 22299 ft 367 kts 263°
2026-05-04 07:41 51.73236 1.37453 21748 ft 366 kts 263°
2026-05-04 07:41 51.72971 1.33388 21204 ft 364 kts 262°
2026-05-04 07:41 51.72704 1.29328 20658 ft 363 kts 262°
2026-05-04 07:41 51.72436 1.25292 20117 ft 361 kts 262°
2026-05-04 07:42 51.72167 1.21276 19576 ft 360 kts 262°
2026-05-04 07:42 51.71896 1.17273 19040 ft 359 kts 262°
2026-05-04 07:42 51.71627 1.13284 18509 ft 357 kts 262°
2026-05-04 07:42 51.71360 1.09343 17934 ft 356 kts 262°
2026-05-04 07:43 51.71089 1.05387 17396 ft 354 kts 262°
2026-05-04 07:43 51.70821 1.01512 16862 ft 351 kts 262°
2026-05-04 07:43 51.70552 0.97610 16350 ft 349 kts 262°
2026-05-04 07:43 51.70283 0.93682 15808 ft 347 kts 262°
2026-05-04 07:44 51.70022 0.89826 15232 ft 346 kts 262°
2026-05-04 07:44 51.69761 0.86040 14680 ft 344 kts 262°
2026-05-04 07:44 51.69494 0.82218 14121 ft 343 kts 262°
2026-05-04 07:44 51.69311 0.79639 13734 ft 342 kts 262°
2026-05-04 07:45 51.69058 0.76102 13192 ft 339 kts 262°
2026-05-04 07:45 51.68789 0.72338 12632 ft 337 kts 262°
2026-05-04 07:45 51.68525 0.68602 12089 ft 334 kts 262°
2026-05-04 07:45 51.68261 0.64892 11541 ft 333 kts 262°
2026-05-04 07:46 51.67998 0.61208 11147 ft 327 kts 262°
2026-05-04 07:46 51.67744 0.57657 11019 ft 312 kts 262°
2026-05-04 07:46 51.67501 0.54260 10892 ft 298 kts 262°
2026-05-04 07:46 51.67266 0.51002 10679 ft 289 kts 262°
2026-05-04 07:47 51.67034 0.47810 10418 ft 285 kts 262°
2026-05-04 07:47 51.66803 0.44652 10156 ft 284 kts 262°
2026-05-04 07:47 51.66568 0.41503 9752 ft 283 kts 262°
2026-05-04 07:49 51.64944 0.19844 7260 ft 261 kts 262°
2026-05-04 07:49 51.64732 0.17000 7137 ft 252 kts 262°
2026-05-04 07:49 51.64413 0.14272 6784 ft 250 kts 244°
2026-05-04 07:50 51.63452 0.12248 6648 ft 240 kts 217°
2026-05-04 07:50 51.61943 0.11222 6384 ft 237 kts 188°
2026-05-04 07:50 51.60323 0.11045 6016 ft 237 kts 182°
2026-05-04 07:50 51.58679 0.11007 5656 ft 237 kts 181°